Weather History for KEZS - March, 2014

Change the Weather History Date:

Tuesday, March 4, 2014

  Actual Average (KGRB) Record (KGRB)
Temperature  
Mean Temperature 10 °F 26 °F  
Max Temperature 21 °F 34 °F 57 °F (2000)
Min Temperature 0 °F 18 °F -13 °F (2004)
Degree Days  
Heating Degree Days 54 39  
Month to date heating degree days 158  
Since 1 July heating degree days 5998  
Cooling Degree Days 0 0  
Month to date cooling degree days 0  
Year to date cooling degree days 0  
Moisture  
Dew Point 6 °F    
Average Humidity 74    
Maximum Humidity 86    
Minimum Humidity 55    
Precipitation  
Precipitation 0.00 in 0.05 in 0.70 in (1976)
Month to date precipitation 0.22  
Year to date precipitation 2.46  
Snow  
Snow 0.00 in 0.30 in 7.00 in (1920)
Month to date snowfall 1.4  
Since 1 July snowfall 41.6  
Snow Depth -    
Sea Level Pressure  
Sea Level Pressure 30.23 in    
Wind  
Wind Speed 2 mph (SW)    
Max Wind Speed 7 mph    
Max Gust Speed -    
Visibility 7 miles    
Events Snow    
T = Trace of Precipitation, MM = Missing Value Source: NWS Daily Summary

Daily Weather History Graph

Daily Weather History Graph

Search for Another Location

Airport or City:

Trip Planner

Search our weather history database for the weather conditions in past years. The results will help you decide how hot, cold, wet, or windy it might be!

Date:

Astronomy

Mar. 04, 2014 Rise Set
Actual Time 6:26 AM CST 5:45 PM CST
Civil Twilight 5:57 AM CST 6:15 PM CST
Nautical Twilight 5:23 AM CST 6:49 PM CST
Astronomical Twilight 4:49 AM CST 7:23 PM CST
Moon 8:02 AM CST (3/4) 10:04 PM CST (3/4)
Length of Visible Light 12h 17m
Length of Day
11h 19m
Waxing Crescent, 15% of the Moon is Illuminated
Mar 4
Waxing Crescent
Mar 8
First Quarter
Mar 16
Full
Mar 23
Last Quarter
Mar 30
New

Hourly Weather History & Observations

Time (CST) Temp. Windchill Dew Point Humidity Pressure Visibility Wind Dir Wind Speed Gust Speed Precip Events Conditions
12:15 AM 12.2 °F 6.1 °F 7.5 °F 82% 30.28 in 1.5 mi SW 3.5 mph - N/A Snow Light Snow
12:35 AM 12.2 °F 6.1 °F 7.7 °F 82% 30.27 in 1.8 mi SW 3.5 mph - N/A Snow Light Snow
12:55 AM 12.2 °F 4.3 °F 7.7 °F 82% 30.28 in 1.5 mi SW 4.6 mph - N/A Snow Light Snow
1:15 AM 12.2 °F 4.3 °F 7.7 °F 82% 30.28 in 1.5 mi SW 4.6 mph - N/A Snow Light Snow
1:35 AM 12.2 °F 6.1 °F 7.5 °F 82% 30.27 in 1.5 mi SW 3.5 mph - N/A Snow Light Snow
1:55 AM 12.2 °F 6.1 °F 7.5 °F 82% 30.26 in 2.0 mi SW 3.5 mph - N/A Snow Light Snow
2:15 AM 12.2 °F 6.1 °F 7.5 °F 82% 30.26 in 1.8 mi SW 3.5 mph - N/A Snow Light Snow
2:35 AM 12.0 °F - 7.7 °F 83% 30.25 in 1.8 mi Calm Calm - N/A Snow Light Snow
2:55 AM 12.0 °F 5.9 °F 7.5 °F 82% 30.25 in 1.2 mi WSW 3.5 mph - N/A Snow Light Snow
3:15 AM 12.0 °F - 7.5 °F 82% 30.24 in 1.2 mi Calm Calm - N/A Snow Light Snow
3:35 AM 12.0 °F - 7.5 °F 82% 30.23 in 1.8 mi Calm Calm - N/A Snow Light Snow
3:55 AM 11.8 °F - 7.3 °F 82% 30.23 in 4.0 mi Calm Calm - N/A Snow Light Snow
4:15 AM 11.8 °F 5.7 °F 6.8 °F 80% 30.23 in 3.0 mi WSW 3.5 mph - N/A Snow Light Snow
4:35 AM 11.8 °F - 7.3 °F 82% 30.23 in 2.0 mi Calm Calm - N/A Snow Light Snow
4:55 AM 11.7 °F - 7.3 °F 83% 30.22 in 1.5 mi Calm Calm - N/A Snow Light Snow
5:15 AM 11.8 °F - 7.3 °F 82% 30.22 in 1.5 mi Calm Calm - N/A Snow Light Snow
5:35 AM 11.8 °F - 7.2 °F 81% 30.22 in 2.5 mi Calm Calm - N/A Snow Light Snow
5:48 AM 12.2 °F 6.1 °F 6.8 °F 79% 30.22 in 2.5 mi WSW 3.5 mph - N/A Snow Light Snow
5:55 AM 11.7 °F 5.5 °F 6.8 °F 81% 30.22 in 3.0 mi WSW 3.5 mph - N/A Snow Light Snow
6:15 AM 11.7 °F 3.7 °F 6.8 °F 81% 30.22 in 2.5 mi SW 4.6 mph - N/A Snow Light Snow
6:35 AM 11.7 °F 5.5 °F 6.8 °F 81% 30.23 in 1.2 mi WSW 3.5 mph - N/A Snow Light Snow
6:55 AM 11.7 °F 5.5 °F 6.8 °F 81% 30.22 in 1.5 mi SW 3.5 mph - N/A Snow Light Snow
7:15 AM 11.8 °F - 6.8 °F 80% 30.21 in 4.0 mi Calm Calm - N/A Snow Light Snow
7:35 AM 11.8 °F 5.7 °F 6.8 °F 80% 30.22 in 7.0 mi SW 3.5 mph - N/A Snow Light Snow
7:55 AM 12.2 °F 6.1 °F 6.8 °F 79% 30.22 in 4.0 mi WSW 3.5 mph - N/A Snow Light Snow
8:15 AM 12.6 °F 4.8 °F 6.8 °F 78% 30.23 in 3.0 mi WSW 4.6 mph - N/A Snow Light Snow
8:35 AM 13.1 °F 5.4 °F 7.2 °F 77% 30.21 in 1.8 mi WSW 4.6 mph - N/A Snow Light Snow
8:55 AM 13.1 °F 5.4 °F 6.8 °F 76% 30.21 in 2.0 mi WSW 4.6 mph - N/A Snow Light Snow
9:15 AM 13.6 °F - 6.8 °F 74% 30.21 in 3.0 mi Calm Calm - N/A Snow Light Snow
9:35 AM 14.0 °F - 6.8 °F 73% 30.20 in 3.0 mi Calm Calm - N/A Snow Light Snow
9:55 AM 14.2 °F - 5.9 °F 70% 30.20 in 10.0 mi Calm Calm - N/A   Overcast
10:20 AM 14.9 °F 7.5 °F 6.3 °F 69% 30.20 in 10.0 mi NW 4.6 mph - N/A Snow Light Snow
10:35 AM 15.6 °F 8.3 °F 7.2 °F 69% 30.21 in 10.0 mi WNW 4.6 mph - N/A Snow Light Snow
10:55 AM 16.5 °F - 6.8 °F 66% 30.20 in 10.0 mi Calm Calm - N/A   Overcast
11:15 AM 16.7 °F - 6.8 °F 65% 30.20 in 10.0 mi Calm Calm - N/A   Overcast
11:35 AM 19.0 °F - 7.5 °F 61% 30.20 in 10.0 mi Calm Calm - N/A Snow Light Snow
11:55 AM 18.3 °F - 7.5 °F 63% 30.20 in 10.0 mi Calm Calm - N/A Snow Light Snow
12:15 PM 17.8 °F - 7.0 °F 63% 30.20 in 10.0 mi Calm Calm - N/A   Overcast
12:35 PM 18.3 °F - 6.6 °F 60% 30.19 in 10.0 mi Calm Calm - N/A   Overcast
12:55 PM 18.3 °F - 6.6 °F 60% 30.18 in 10.0 mi Calm Calm - N/A   Overcast
1:15 PM 19.2 °F - 6.8 °F 59% 30.18 in 10.0 mi Calm Calm - N/A   Overcast
1:35 PM 19.4 °F 10.4 °F 7.3 °F 60% 30.18 in 10.0 mi West 6.9 mph - N/A   Overcast
1:55 PM 19.9 °F - 7.7 °F 59% 30.18 in 10.0 mi Calm Calm - N/A   Overcast
2:15 PM 19.9 °F - 7.0 °F 57% 30.18 in 10.0 mi Calm Calm - N/A   Overcast
2:35 PM 20.3 °F 15.4 °F 7.5 °F 58% 30.17 in 10.0 mi South 3.5 mph - N/A   Overcast
3:00 PM 20.7 °F - 7.3 °F 56% 30.17 in 10.0 mi Calm Calm - N/A   Overcast
3:15 PM 20.8 °F - 7.5 °F 56% 30.19 in 10.0 mi Calm Calm - N/A   Overcast
3:35 PM 20.5 °F - 7.7 °F 58% 30.20 in 10.0 mi Calm Calm - N/A   Overcast
3:55 PM 21.6 °F - 7.5 °F 55% 30.18 in 10.0 mi Calm Calm - N/A   Overcast
4:15 PM 21.0 °F - 7.7 °F 56% 30.19 in 10.0 mi Calm Calm - N/A   Scattered Clouds
4:35 PM 20.8 °F 16.0 °F 7.7 °F 57% 30.19 in 10.0 mi South 3.5 mph - N/A   Scattered Clouds
4:55 PM 19.9 °F - 7.3 °F 58% 30.18 in 10.0 mi Calm Calm - N/A   Clear
5:15 PM 20.3 °F 15.4 °F 7.3 °F 57% 30.19 in 10.0 mi South 3.5 mph - N/A   Clear
5:35 PM 19.4 °F - 7.3 °F 60% 30.20 in 10.0 mi Calm Calm - N/A   Clear
5:55 PM 18.9 °F - 7.5 °F 61% 30.21 in 10.0 mi Calm Calm - N/A   Clear
6:15 PM 16.9 °F - 7.3 °F 66% 30.21 in 10.0 mi Calm Calm - N/A   Clear
6:35 PM 13.8 °F - 7.5 °F 76% 30.21 in 10.0 mi Calm Calm - N/A   Clear
6:55 PM 9.7 °F - 4.3 °F 79% 30.22 in 10.0 mi Calm Calm - N/A   Clear
7:15 PM 8.2 °F - 3.6 °F 81% 30.23 in 10.0 mi Calm Calm - N/A   Clear
7:35 PM 7.9 °F - 3.6 °F 83% 30.23 in 10.0 mi Calm Calm - N/A   Clear
7:55 PM 9.5 °F - 6.1 °F 86% 30.24 in 10.0 mi Calm Calm - N/A   Clear
8:15 PM 7.7 °F - 3.9 °F 85% 30.24 in 10.0 mi Calm Calm - N/A   Clear
8:35 PM 5.2 °F - 0.9 °F 82% 30.25 in 10.0 mi Calm Calm - N/A   Clear
8:55 PM 6.3 °F - 1.8 °F 82% 30.26 in 10.0 mi Calm Calm - N/A   Clear
9:15 PM 3.6 °F - -1.1 °F 81% 30.27 in 10.0 mi Calm Calm - N/A   Clear
9:35 PM 4.3 °F - -0.2 °F 82% 30.28 in 10.0 mi Calm Calm - N/A   Clear
9:55 PM 3.9 °F - -0.8 °F 81% 30.28 in 10.0 mi Calm Calm - N/A   Clear
10:15 PM 3.6 °F - -0.8 °F 82% 30.29 in 10.0 mi Calm Calm - N/A   Clear
10:35 PM 0.5 °F - -4.2 °F 81% 30.29 in 10.0 mi Calm Calm - N/A   Clear
10:55 PM 0.9 °F - -4.0 °F 80% 30.30 in 10.0 mi Calm Calm - N/A   Clear
11:15 PM 1.0 °F - -3.8 °F 80% 30.31 in 10.0 mi Calm Calm - N/A   Scattered Clouds
11:35 PM 1.8 °F - -3.1 °F 80% 30.31 in 10.0 mi Calm Calm - N/A   Overcast
11:55 PM 3.9 °F - -0.6 °F 82% 30.31 in 10.0 mi Calm Calm - N/A   Overcast